Regional Weather Roundup
Issued by NWS

Home | Current Version | Previous Version | Text Only | Print | Product List | Glossary On
Versions: 1 2 3 4 5 6 7 8 9 10 11 12 13 14 15 16 17 18 19 20 21 22 23 24 25 26 27 28 29 30 31 32 33 34 35 36 37 38 39 40 41 42 43 44 45 46 47 48 49 50
000
ASCA44 KEWX 021420
RWRMX

LATIN AMERICA AND CARIBBEAN REGIONAL WEATHER ROUNDUP
NATIONAL WEATHER SERVICE AUSTIN/SAN ANTONIO TX
900 AM CDT THU OCT 02 2014

NOTE: "FAIR" INDICATED FEW OR NO CLOUDS BELOW 12,000 FEET WITH NO
SIGNIFICANT WEATHER AND/OR OBSTRUCTIONS TO VISIBILITY.

BAJA CALIFORNIA

CITY           SKY/WX    TMP DP  RH WIND       PRES   REMARKS
MEXICALI       CLEAR     72  37  28 W6        29.94
TIJUANA        CLEAR     66  52  59 CALM      29.92R

NORTHWESTERN MEXICO

CITY           SKY/WX    TMP DP  RH WIND       PRES   REMARKS
CULIACAN       MOSUNNY   82  75  78 NE6       29.79
DURANGO        MOSUNNY   57  54  88 CALM      30.20R
GUAYMAS        CLEAR     81  70  69 CALM      29.75
HERMOSILLO     CLEAR     70  64  83 CALM      29.85
CD. JUAREZ     SUNNY     64  50  59 NW12      29.98
OBREGON        CLEAR     72  63  73 SE3       29.76

NORTHEASTERN MEXICO

CITY           SKY/WX    TMP DP  RH WIND       PRES   REMARKS
CHIHUAHUA      SUNNY     54  50  87 S7        30.10
MATAMOROS      MOSUNNY   82  81  94 SE12      29.87  HX  95
MONCLOVA       SUNNY     77  61  57 CALM      29.86S
MONTERREY      CLOUDY    75  72  88 E3        29.86R
NUEVO LAREDO   MOSUNNY   79  73  83 S6        29.85
PIEDRAS NEGRAS CLOUDY    77  75  94 SE9       29.85R
REYNOSA          N/A    N/A N/A N/A MISG        N/A
SALTILLO       SUNNY     73  57  56 S8        30.08R
TORREON        MOSUNNY   70  52  52 CALM      30.00R
CD. VICTORIA   MOSUNNY   77  77 100 S8        29.89

WESTERN MEXICO

CITY           SKY/WX    TMP DP  RH WIND       PRES   REMARKS
AGUASCALIENTES MOSUNNY   57  55  94 NE5       30.22
COLIMA         FOG       70  68  94 SE5       29.95F VSB 1/2
DEL BAJIO      PTSUNNY   63  61  94 CALM      30.23R
GUADALAJARA    CLOUDY    66  63  88 CALM      30.12
MANZANILLO     LGT RAIN  77  73  88 E9        29.79R
MAZATLAN       CLOUDY    79  75  89 CALM      29.77R
P. VALLARTA    CLOUDY    79  75  89 CALM      29.79R
URUAPAN        CLOUDY    64  61  88 CALM      30.15R
ZACATECAS      MOSUNNY   55  48  76 CALM      30.23R

CENTRAL MEXICO

CITY           SKY/WX    TMP DP  RH WIND       PRES   REMARKS
CUERNAVACA     CLOUDY    68  66  94 CALM      30.14R FOG
MEXICO CITY    MOSUNNY   63  55  77 NE2       30.29R
MORELIA        MOSUNNY   63  59  88 S3        30.19
POZA RICA      PTSUNNY   79  77  94 CALM      29.91R FOG
PUEBLA         PTSUNNY   59  57  94 CALM      30.30R
QUERETARO      CLOUDY    63  61  94 CALM      30.26R FOG
S. LUIS POTOSI PTSUNNY   61  59  94 CALM      30.21R
TAMPICO        MOSUNNY   82  75  78 SE14      29.87R
TOLUCA         CLOUDY    55  48  76 E5        30.36R

SOUTHERN MEXICO

CITY           SKY/WX    TMP DP  RH WIND       PRES   REMARKS
ACAPULCO       CLOUDY    77  73  88 NE7       29.90R
B. DE HUATULCO CLOUDY    73  66  78 CALM      29.95
OAXACA         PTSUNNY   63  61  94 NW3       30.23R
P. ESCONDIDO   CLOUDY    77  70  78 NE14      30.02S
VERACRUZ       PTSUNNY   77  72  83 W3        29.88R
ZIHUATANEJO    CLOUDY    77  72  83 CALM      29.87R

YUCATAN PENINSULA

CITY           SKY/WX    TMP DP  RH WIND       PRES   REMARKS
CAMPECHE       MOSUNNY   81  79  94 E14       29.93R
CANCUN         PTSUNNY   84  77  79 SE13      30.01R HX  94
CHETUMAL       MOSUNNY   86  77  74 E9        29.94S HX  97
CD. DEL CARMEN PTSUNNY   84  77  79 E9        29.92  HX  94
COZUMEL        MOSUNNY   81  77  89 SE9       30.00R
MERIDA         CLOUDY    79  79 100 SE7       29.98R FOG
MINATITLAN     PTSUNNY   79  66  65 SE12      29.86
TAPACHULA      CLOUDY    77  75  94 CALM      29.91R
TUX. GUTIERREZ CLOUDY    72  70  94 SW2       30.02R FOG
VILLAHERMOSA   CLOUDY    77  73  88 CALM      29.94R

CENTRAL AMERICA

CITY           SKY/WX    TMP DP  RH WIND       PRES   REMARKS
BELIZE CITY    PTSUNNY   86  79  79 E9        29.95R HX  99
MANAGUA        MOSUNNY   82  77  83 E7        29.89R HX  91

CARIBBEAN

CITY           SKY/WX    TMP DP  RH WIND       PRES   REMARKS
ARUBA          MOSUNNY   90  75  62 E21G32    29.92S HX 100
KINGSTON       MOSUNNY   86  75  70 NW8       30.00R HX  95
NASSAU         MOSUNNY   86  75  70 SW12      30.06R HX  95
SAN JUAN       MOSUNNY   90  77  66 E9        30.05S HX 102
SANTO DOMINGO  MOSUNNY   86  77  74 E7        30.00S HX  97
ST. CROIX      MOSUNNY   88  77  70 E16       30.06S HX 100
ST. KITTS      MOSUNNY   88  77  70 E12       30.06S HX 100
ST. MAARTEN    PTSUNNY   88  77  70 E9        30.06S HX 100
ST. THOMAS     MOSUNNY   86  75  70 SE13      30.06R HX  95

$$



USA.gov is the U.S. government's official web portal to all federal, state and local government web resources and services.